DAL2530 KSAN-KSEA

Flight info

Callsign DAL2530
Flight time N/A
Altitude 36000
Route PADRZ2 EHF SHIMR LKV HAWKZ8
Aircraft B738/M-SDE2E3FGHIRWXY/LB1

Departure

Time 2026-04-20 20:48
Airport San Diego International Airport (KSAN)

Arrival

Time N/A
Airport Seattle–Tacoma International Airport (KSEA)
Time Latitude Longitude Altitude Speed Heading
2026-04-20 20:28 32.73295 -117.20468 20 ft 0 kts 102°
2026-04-20 20:33 32.73295 -117.20469 20 ft 4 kts 103°
2026-04-20 20:34 32.73302 -117.20500 21 ft 4 kts 107°
2026-04-20 20:34 32.73311 -117.20530 23 ft 4 kts 109°
2026-04-20 20:34 32.73319 -117.20561 25 ft 4 kts 103°
2026-04-20 20:34 32.73321 -117.20590 24 ft 4 kts 61°
2026-04-20 20:35 32.73315 -117.20600 24 ft 1 kts 45°
2026-04-20 20:37 32.73317 -117.20598 25 ft 2 kts 45°
2026-04-20 20:37 32.73355 -117.20565 23 ft 11 kts 23°
2026-04-20 20:37 32.73459 -117.20547 20 ft 18 kts 12°
2026-04-20 20:38 32.73555 -117.20453 17 ft 18 kts 52°
2026-04-20 20:38 32.73584 -117.20322 19 ft 17 kts 105°
2026-04-20 20:38 32.73549 -117.20189 22 ft 16 kts 106°
2026-04-20 20:38 32.73520 -117.20061 21 ft 17 kts 105°
2026-04-20 20:39 32.73485 -117.19920 24 ft 19 kts 107°
2026-04-20 20:39 32.73445 -117.19759 25 ft 22 kts 106°
2026-04-20 20:39 32.73401 -117.19574 24 ft 24 kts 105°
2026-04-20 20:39 32.73356 -117.19387 23 ft 23 kts 107°
2026-04-20 20:40 32.73313 -117.19207 21 ft 21 kts 105°
2026-04-20 20:40 32.73281 -117.19078 23 ft 15 kts 108°
2026-04-20 20:40 32.73255 -117.18971 23 ft 11 kts 106°
2026-04-20 20:40 32.73238 -117.18899 23 ft 4 kts 106°
2026-04-20 20:41 32.73238 -117.18898 23 ft 0 kts 106°
2026-04-20 20:44 32.73234 -117.18883 22 ft 6 kts 106°
2026-04-20 20:44 32.73212 -117.18795 24 ft 16 kts 106°
2026-04-20 20:44 32.73174 -117.18638 27 ft 22 kts 106°
2026-04-20 20:44 32.73131 -117.18460 23 ft 22 kts 106°
2026-04-20 20:45 32.73089 -117.18285 23 ft 22 kts 106°
2026-04-20 20:45 32.73046 -117.18114 20 ft 21 kts 106°
2026-04-20 20:45 32.73007 -117.17947 20 ft 21 kts 106°
2026-04-20 20:45 32.72967 -117.17789 18 ft 20 kts 106°
2026-04-20 20:46 32.72964 -117.17631 22 ft 19 kts 65°
2026-04-20 20:46 32.73029 -117.17607 22 ft 11 kts 282°
2026-04-20 20:46 32.73041 -117.17662 21 ft 1 kts 284°
2026-04-20 20:46 32.73042 -117.17668 21 ft 5 kts 284°
2026-04-20 20:47 32.73096 -117.17892 20 ft 60 kts 286°
2026-04-20 20:47 32.73267 -117.18597 24 ft 117 kts 286°
2026-04-20 20:47 32.73535 -117.19715 63 ft 158 kts 285°
2026-04-20 20:47 32.73866 -117.21049 482 ft 173 kts 287°
2026-04-20 20:48 32.74360 -117.22408 1059 ft 183 kts 301°
2026-04-20 20:48 32.75133 -117.23617 1717 ft 190 kts 306°
2026-04-20 20:48 32.75976 -117.24977 1916 ft 217 kts 304°
2026-04-20 20:48 32.76879 -117.26508 2169 ft 233 kts 304°
2026-04-20 20:49 32.77814 -117.28126 2586 ft 242 kts 304°
2026-04-20 20:49 32.79211 -117.30567 3107 ft 263 kts 303°
2026-04-20 20:49 32.81184 -117.33813 4344 ft 271 kts 306°
2026-04-20 20:49 32.85933 -117.41110 7037 ft 286 kts 306°
2026-04-20 20:50 32.90816 -117.48680 9888 ft 297 kts 306°
2026-04-20 20:50 32.92297 -117.50986 10426 ft 313 kts 306°
2026-04-20 20:50 32.94879 -117.55010 11258 ft 335 kts 305°
2026-04-20 20:50 33.00673 -117.64049 14110 ft 349 kts 304°
2026-04-20 20:51 33.05892 -117.72211 16451 ft 362 kts 304°
2026-04-20 20:51 33.07945 -117.74836 17236 ft 370 kts 315°
2026-04-20 20:51 33.10748 -117.77613 18174 ft 377 kts 317°
2026-04-20 20:51 33.13076 -117.79842 18809 ft 382 kts 317°
2026-04-20 20:52 33.15134 -117.81867 19408 ft 384 kts 316°
2026-04-20 20:52 33.18269 -117.85038 20347 ft 388 kts 316°
2026-04-20 20:52 33.20304 -117.87111 20929 ft 391 kts 316°
2026-04-20 20:52 33.22413 -117.89196 21484 ft 395 kts 317°
2026-04-20 20:53 33.24553 -117.91276 22059 ft 398 kts 317°
2026-04-20 20:53 33.26720 -117.93373 22608 ft 401 kts 317°
2026-04-20 20:53 33.28903 -117.95489 23164 ft 404 kts 317°
2026-04-20 20:53 33.31071 -117.97597 23689 ft 407 kts 317°
2026-04-20 20:54 33.33276 -117.99748 24145 ft 410 kts 317°
2026-04-20 20:54 33.34775 -118.01213 24465 ft 411 kts 317°